Regional Weather Roundup
Issued by NWS

Home | Current Version | Previous Version | Graphics & Text | Print | Product List | Glossary Off
Versions: 1 2 3 4 5 6 7 8 9 10 11 12 13 14 15 16 17 18 19 20 21 22 23 24 25 26 27 28 29 30 31 32 33 34 35 36 37 38 39 40 41 42 43 44 45 46 47 48 49 50

000
ASUS43 KTOP 052059
RWRKS

WEATHER ROUNDUP FOR KANSAS
NATIONAL WEATHER SERVICE GOODLAND KS
400 PM CDT SUN JUL 05 2015

NOTE:  "FAIR" INDICATES FEW OR NO CLOUDS BELOW 12,000 FEET WITH NO
SIGNIFICANT WEATHER AND/OR OBSTRUCTIONS TO VISIBILITY.

KSZ001>006-013>018-027>032-041>047-052200-
NORTHWEST KANSAS

CITY           SKY/WX    TMP DP  RH WIND       PRES   REMARKS
GOODLAND       SUNNY     97  49  19 S16G24    29.81F
HAYS           SUNNY    100  61  27 S20G30    29.80F HX 101
HILL CITY      SUNNY    103  60  24 SW22G32   29.77F HX 104
RUSSELL        LGT RAIN  98  60  28 S25G35    29.80F HX  98
$$

KSZ061>065-074>080-084>089-052200-
SOUTHWEST KANSAS

CITY           SKY/WX    TMP DP  RH WIND       PRES   REMARKS
DODGE CITY     SUNNY     94  57  28 S20G35    29.86F
ELKHART          N/A     96  58  28 S18         N/A  HX  95
GARDEN CITY    SUNNY     93  61  34 S23G35    29.85F
GREAT BEND     SUNNY     97  61  30 S22G29    29.83F HX  97
LIBERAL        MOSUNNY   93  61  33 S21       29.91F
$$

KSZ066>073-081>083-090>101-052200-
SOUTHEAST KANSAS

CITY           SKY/WX    TMP DP  RH WIND       PRES   REMARKS
CHANUTE        MOSUNNY   92  73  53 S10G21    29.92F HX 100
COFFEYVILLE    MOSUNNY   93  75  55 S13G21    29.91F HX 104
HUTCHINSON     SUNNY    101  62  27 S26G32    29.85F HX 102
MEDICINE LODGE   N/A     97  62  31 S16G30    29.85F HX  98
NEWTON         MOSUNNY   97  63  32 S16G29    29.90S HX  98
PARSONS        MOSUNNY   91  76  61 S10       29.93F HX 103
WICHITA INTL   MOSUNNY   99  64  31 S18       29.86F HX 101
WICHITA JABRA  MOSUNNY   97  64  33 S16G25    29.87F HX  99
WINFIELD       SUNNY     98  66  34 S17G25    29.89F HX 101
$$

KSZ007>012-019>026-033>040-048>060-102>105-052200-
NORTHEAST KANSAS

CITY           SKY/WX    TMP DP  RH WIND       PRES   REMARKS
CONCORDIA      MOSUNNY   93  66  40 S15       29.81F HX  96
EMPORIA        SUNNY     91  73  55 S21G26    29.89F HX  99
LAWRENCE       MOSUNNY   91  74  57 S12       29.90F HX 100
MANHATTAN      SUNNY     98  68  37 S16G24    29.83F HX 103
OLATHE IND     MOSUNNY   88  75  65 SE14      29.93F HX  97
OLATHE EXE     MOSUNNY   87  74  64 SE16      29.92F HX  95
SALINA         SUNNY    101  62  27 S23G32    29.82F HX 102
TOPEKA BILLARD MOSUNNY   91  73  55 SE14G21   29.89F HX  99
TOPEKA FORBES  MOSUNNY   92  73  53 SE16      29.89F HX 100
$$



USA.gov is the U.S. government's official web portal to all federal, state and local government web resources and services.